Weather History for Henry Tift Myers AP, Tifton,, GA

Change the Weather History Date:

Monday, February 3, 2014

  Actual Average Record
Temperature  
Mean Temperature 68 °F -  
Max Temperature 75 °F 62 °F 75 °F (2014)
Min Temperature 63 °F 40 °F 63 °F (2014)
Cooling Degree Days 3    
Growing Degree Days 18 (Base 50)    
Moisture  
Dew Point 63 °F    
Average Humidity 90    
Maximum Humidity 99    
Minimum Humidity 59    
Precipitation  
Precipitation 0.00 in - - ()
Sea Level Pressure  
Sea Level Pressure 30.05 in    
Wind  
Wind Speed 7 mph (SSW)    
Max Wind Speed 13 mph    
Max Gust Speed 17 mph    
Visibility 9 miles    
Events Rain    
Averages and records for this station are not official NWS values.
T = Trace of Precipitation, MM = Missing Value Source: NWS Daily Summary

Daily Weather History Graph

Daily Weather History Graph

Search for Another Location

Airport:

Trip Planner

Search our weather history database for the weather conditions in past years. The results will help you decide how hot, cold, wet, or windy it might be!

Date:

Astronomy

Feb. 03, 2014 Rise Set
Actual Time 7:25 AM EST 6:10 PM EST
Civil Twilight 6:59 AM EST 6:36 PM EST
Nautical Twilight 6:30 AM EST 7:05 PM EST
Astronomical Twilight 6:02 AM EST 7:33 PM EST
Moon 9:46 AM EST (2/3) 10:38 PM EST (2/3)
Length of Visible Light 11h 36m
Length of Day
10h 45m
Waxing Crescent, 19% of the Moon is Illuminated
Feb 3
Waxing Crescent
Feb 6
First Quarter
Feb 14
Full
Feb 22
Last Quarter
Mar 1
New

Hourly Weather History & Observations

Time (EST) Temp. Dew Point Humidity Pressure Visibility Wind Dir Wind Speed Gust Speed Precip Events Conditions
12:15 AM 65.5 °F 64.9 °F 98% 30.04 in 10.0 mi South 8.1 mph - N/A   Overcast
12:35 AM 65.7 °F 65.1 °F 98% 30.03 in 7.0 mi South 9.2 mph - N/A   Overcast
12:55 AM 65.8 °F 65.3 °F 98% 30.03 in 7.0 mi South 6.9 mph - N/A   Overcast
1:15 AM 66.0 °F 65.3 °F 98% 30.03 in 7.0 mi South 9.2 mph - N/A   Overcast
1:35 AM 66.0 °F 65.3 °F 98% 30.02 in 7.0 mi South 10.4 mph - N/A   Overcast
1:55 AM 65.8 °F 65.3 °F 98% 30.03 in 5.0 mi South 11.5 mph 17.3 mph N/A   Overcast
2:15 AM 65.5 °F 65.1 °F 99% 30.02 in 5.0 mi South 11.5 mph 16.1 mph N/A   Overcast
2:35 AM 65.7 °F 65.3 °F 99% 30.02 in 7.0 mi South 8.1 mph - N/A   Overcast
2:55 AM 65.7 °F 64.9 °F 98% 30.02 in 7.0 mi South 10.4 mph - N/A   Overcast
3:15 AM 65.7 °F 64.9 °F 98% 30.02 in - South 9.2 mph - N/A   Overcast
3:35 AM 65.7 °F 64.9 °F 98% 30.01 in - South 11.5 mph - N/A   Overcast
3:55 AM 65.7 °F 64.8 °F 97% 30.01 in - South 10.4 mph - N/A   Overcast
4:15 AM 65.8 °F 64.6 °F 96% 30.01 in - South 8.1 mph - N/A   Overcast
4:35 AM 65.7 °F 64.4 °F 96% 30.01 in - South 6.9 mph - N/A   Overcast
4:55 AM 65.5 °F 64.4 °F 96% 30.01 in - South 6.9 mph - N/A   Overcast
5:15 AM 65.3 °F 64.2 °F 96% 30.01 in - South 8.1 mph - N/A   Overcast
5:35 AM 65.1 °F 64.0 °F 96% 30.02 in - SSW 5.8 mph - N/A   Overcast
5:55 AM 64.8 °F 63.9 °F 97% 30.02 in - South 6.9 mph - N/A   Overcast
6:15 AM 64.6 °F 63.7 °F 97% 30.02 in - South 8.1 mph - N/A   Overcast
6:35 AM 64.6 °F 63.7 °F 97% 30.03 in - South 8.1 mph - N/A   Overcast
6:55 AM 64.6 °F 63.7 °F 97% 30.03 in 10.0 mi South 6.9 mph - N/A   Overcast
7:15 AM 64.4 °F 63.5 °F 97% 30.03 in 10.0 mi South 6.9 mph - N/A   Overcast
7:35 AM 64.4 °F 63.5 °F 97% 30.04 in 10.0 mi SSW 6.9 mph - N/A   Overcast
7:55 AM 64.6 °F 63.5 °F 96% 30.04 in 10.0 mi SSW 9.2 mph - N/A   Overcast
8:15 AM 64.8 °F 63.5 °F 96% 30.05 in 10.0 mi SSW 8.1 mph - N/A   Overcast
8:35 AM 64.9 °F 63.5 °F 95% 30.06 in 10.0 mi SSW 5.8 mph - N/A   Overcast
8:55 AM 65.3 °F 63.5 °F 94% 30.06 in 10.0 mi South 5.8 mph - N/A   Overcast
9:15 AM 66.0 °F 63.5 °F 92% 30.06 in 10.0 mi South 9.2 mph - N/A   Overcast
9:35 AM 67.1 °F 63.7 °F 89% 30.06 in - SW 9.2 mph - N/A   Mostly Cloudy
9:55 AM 68.4 °F 63.5 °F 84% 30.07 in - SW 9.2 mph - N/A   Scattered Clouds
10:15 AM 69.6 °F 63.0 °F 79% 30.08 in - SSW 10.4 mph - N/A   Scattered Clouds
10:35 AM 70.7 °F 62.2 °F 75% 30.08 in - SSW 10.4 mph - N/A   Scattered Clouds
10:55 AM 71.2 °F 60.8 °F 69% 30.08 in 10.0 mi SSW 9.2 mph 16.1 mph N/A   Overcast
11:15 AM 72.3 °F 59.9 °F 65% 30.08 in - SSW 6.9 mph 16.1 mph N/A   Overcast
11:35 AM 73.2 °F 59.2 °F 61% 30.07 in - SW 12.7 mph 16.1 mph N/A   Overcast
11:55 AM 73.2 °F 58.6 °F 60% 30.07 in - SW 9.2 mph - N/A   Overcast
12:15 PM 73.0 °F 58.8 °F 61% 30.06 in - SSW 8.1 mph - N/A   Overcast
12:35 PM 73.2 °F 58.5 °F 60% 30.06 in - SW 8.1 mph 16.1 mph N/A   Overcast
12:55 PM 73.0 °F 58.1 °F 59% 30.06 in 10.0 mi WSW 11.5 mph 16.1 mph N/A   Overcast
1:15 PM 72.9 °F 58.1 °F 60% 30.05 in - WSW 8.1 mph - N/A   Overcast
1:35 PM 72.0 °F 59.5 °F 65% 30.05 in 10.0 mi WNW 10.4 mph - N/A   Overcast
1:55 PM 70.7 °F 60.3 °F 69% 30.05 in 10.0 mi WNW 9.2 mph - N/A   Overcast
2:15 PM 69.1 °F 61.7 °F 77% 30.04 in 7.0 mi NW 9.2 mph - N/A   Overcast
2:35 PM 67.8 °F 62.4 °F 83% 30.05 in 10.0 mi WNW 9.2 mph - N/A   Overcast
2:55 PM 66.9 °F 62.8 °F 87% 30.05 in 7.0 mi West 4.6 mph - N/A   Overcast
3:15 PM 66.4 °F 63.7 °F 91% 30.05 in 7.0 mi West 5.8 mph - N/A Rain Light Rain
3:35 PM 66.2 °F 64.2 °F 93% 30.04 in 5.0 mi WSW 5.8 mph - N/A   Overcast
3:55 PM 66.0 °F 64.4 °F 94% 30.04 in 10.0 mi Calm Calm - N/A   Overcast
4:15 PM 66.7 °F 64.4 °F 92% 30.03 in 10.0 mi Calm Calm - N/A   Overcast
4:35 PM 68.2 °F 63.5 °F 85% 30.03 in 10.0 mi Calm Calm - N/A   Overcast
4:55 PM 68.9 °F 62.6 °F 80% 30.03 in 10.0 mi Calm Calm - N/A   Overcast
5:15 PM 68.9 °F 63.0 °F 81% 30.03 in 10.0 mi Calm Calm - N/A   Overcast
5:35 PM 68.4 °F 63.7 °F 85% 30.04 in 10.0 mi Calm Calm - N/A   Overcast
5:55 PM 67.6 °F 64.6 °F 90% 30.05 in 10.0 mi WNW 3.5 mph - N/A   Overcast
6:15 PM 67.3 °F 64.9 °F 92% 30.05 in 10.0 mi Calm Calm - N/A   Overcast
6:35 PM 66.6 °F 64.8 °F 94% 30.06 in 10.0 mi Calm Calm - N/A   Overcast
6:55 PM 66.2 °F 64.6 °F 94% 30.06 in 10.0 mi Calm Calm - N/A   Overcast
7:15 PM 66.2 °F 64.8 °F 95% 30.06 in 10.0 mi Calm Calm - N/A   Overcast
7:35 PM 65.7 °F 64.6 °F 96% 30.07 in 10.0 mi Calm Calm - N/A   Overcast
7:55 PM 65.7 °F 64.6 °F 96% 30.07 in 10.0 mi Calm Calm - N/A   Overcast
8:15 PM 65.5 °F 64.6 °F 97% 30.07 in 10.0 mi Calm Calm - N/A   Overcast
8:35 PM 65.1 °F 64.4 °F 98% 30.07 in 10.0 mi Calm Calm - N/A   Overcast
8:55 PM 63.7 °F 63.0 °F 97% 30.08 in 10.0 mi Calm Calm - N/A   Mostly Cloudy
9:15 PM 64.2 °F 63.9 °F 99% 30.09 in 10.0 mi Calm Calm - N/A   Overcast
9:35 PM 64.4 °F 63.9 °F 98% 30.09 in 10.0 mi Calm Calm - N/A   Overcast
9:55 PM 64.6 °F 64.0 °F 98% 30.09 in 10.0 mi Calm Calm - N/A   Overcast
10:15 PM 64.8 °F 64.0 °F 98% 30.10 in 10.0 mi Calm Calm - N/A   Overcast
10:35 PM 64.8 °F 63.9 °F 97% 30.10 in 10.0 mi Calm Calm - N/A   Overcast
10:55 PM 64.6 °F 63.9 °F 98% 30.10 in 10.0 mi Calm Calm - N/A   Overcast
11:15 PM 64.4 °F 63.9 °F 98% 30.10 in 10.0 mi Calm Calm - N/A   Overcast
11:35 PM 64.4 °F 63.9 °F 98% 30.10 in 10.0 mi Calm Calm - N/A   Overcast
11:55 PM 64.4 °F 63.9 °F 98% 30.11 in 10.0 mi Calm Calm - N/A   Overcast